CT1OY Oeiras PT current weather conditions

sailwx.info

Wind from 295

Air temperature 25.6° C
Dewpoint 19.9° C

Last reported at 2015-Jul-30 11:18 UTC.
Time now 2015-Jul-30 12:13 UTC

Location: N 38°44' W 009°17'.
View on Google Maps.

See reports from other nearby stations

  
Tides and Currents Weather Stations Pressure Air Temp Water Temp Dewpoint Dewpoint Depression Visibility Wind Speed Wind Dir Waves Ship Positions
date/time (UTC)wind fromknots sea level pressurealtimeterstation pressurevisibilityair tempwater tempwave heightnotes
2015-Jul-30 11:18 295 25.6
2015-Jul-30 11:08 274 25.0
2015-Jul-30 10:48 304 24.4
2015-Jul-30 10:38 271 1 24.4
2015-Jul-30 10:28 298 1 24.4
2015-Jul-30 10:18 291 23.9
2015-Jul-30 10:08 275 0 23.9
2015-Jul-30 09:58 275 23.3
2015-Jul-30 09:48 328 0 23.9
2015-Jul-30 09:28 274 23.9
2015-Jul-30 09:08 304 0 23.3
2015-Jul-30 08:58 328 23.3
2015-Jul-30 08:48 309 1 22.8
2015-Jul-30 08:38 312 22.8
2015-Jul-30 07:58 283 4 21.7
2015-Jul-30 07:48 250 21.7
2015-Jul-30 07:28 267 3 21.1
2015-Jul-30 07:18 300 0 21.1
2015-Jul-30 07:08 309 21.1
2015-Jul-30 06:58 338 1 21.1
2015-Jul-30 06:48 295 21.1
2015-Jul-30 06:28 295 21.1
2015-Jul-30 06:18 284 0 21.1
2015-Jul-30 06:08 287 0 21.1
2015-Jul-30 05:58 273 21.1
2015-Jul-30 05:48 286 2 21.1
2015-Jul-30 05:38 290 0 21.1
2015-Jul-30 05:28 293 21.1
2015-Jul-30 05:18 301 21.1
2015-Jul-30 05:08 330 21.1
2015-Jul-30 04:48 267 21.1
2015-Jul-30 04:38 284 21.7
2015-Jul-30 04:18 308 21.7
2015-Jul-30 04:08 271 21.7
2015-Jul-30 03:58 314 21.7
2015-Jul-30 03:38 271 21.7
2015-Jul-30 03:28 267 21.7
2015-Jul-30 03:18 285 21.7
2015-Jul-30 02:28 264 21.1
2015-Jul-30 02:18 281 21.1
2015-Jul-30 02:08 289 21.1
2015-Jul-30 01:28 287 0 21.1
2015-Jul-30 01:18 300 21.1
2015-Jul-30 01:08 294 21.1
2015-Jul-30 00:58 316 1 gusting 10 21.1
2015-Jul-30 00:38 305 3 21.1
2015-Jul-30 00:28 285 21.1
2015-Jul-30 00:18 284 0 21.1
2015-Jul-30 00:08 270 21.1
2015-Jul-29 23:48 284 1 21.1
2015-Jul-29 23:38 309 1 21.1
2015-Jul-29 23:28 064 21.1
2015-Jul-29 23:18 319 21.1
2015-Jul-29 22:58 278 0 gusting 10 21.1
2015-Jul-29 22:48 357 21.1
2015-Jul-29 22:38 284 21.1
2015-Jul-29 22:28 301 21.1
2015-Jul-29 22:18 290 4 gusting 11 21.1
2015-Jul-29 22:08 010 21.1
2015-Jul-29 21:58 311 21.1
2015-Jul-29 21:48 295 0 21.1
2015-Jul-29 21:38 304 21.1
2015-Jul-29 21:28 281 21.1
2015-Jul-29 21:18 293 6 21.1
2015-Jul-29 20:48 315 21.1
2015-Jul-29 20:38 297 0 21.1
2015-Jul-29 20:18 293 21.1
2015-Jul-29 20:08 295 21.1
2015-Jul-29 19:58 330 5 21.7
2015-Jul-29 19:48 302 3 21.7
2015-Jul-29 19:38 286 22.2
2015-Jul-29 19:28 316 3 22.2
2015-Jul-29 19:18 041 22.8
2015-Jul-29 19:08 262 22.8
2015-Jul-29 18:58 278 23.3
2015-Jul-29 18:48 303 23.3
2015-Jul-29 18:28 283 2 23.9
2015-Jul-29 18:18 293 6 gusting 11 23.9
2015-Jul-29 18:08 260 6 gusting 15 23.9
2015-Jul-29 17:58 314 3 gusting 14 24.4
2015-Jul-29 17:48 341 2 gusting 16 24.4
2015-Jul-29 17:28 325 0 gusting 13 25.0
2015-Jul-29 17:18 268 0 gusting 17 25.0
2015-Jul-29 17:08 018 7 gusting 17 25.0
2015-Jul-29 16:48 271 10 gusting 17 25.6
2015-Jul-29 16:28 316 7 gusting 18 25.6
2015-Jul-29 16:18 316 2 gusting 18 25.6
2015-Jul-29 16:08 307 11 gusting 17 25.6
2015-Jul-29 15:58 314 25.6
2015-Jul-29 15:48 342 9 gusting 14 25.6
2015-Jul-29 15:38 087 0 gusting 13 26.1
2015-Jul-29 15:28 327 1 gusting 14 26.1
2015-Jul-29 15:18 269 3 gusting 13 26.7
2015-Jul-29 14:58 263 3 gusting 13 26.7
2015-Jul-29 14:48 006 11 gusting 11 26.7
2015-Jul-29 14:28 297 5 gusting 10 26.7
2015-Jul-29 13:58 333 1 gusting 13 26.1
2015-Jul-29 13:48 278 10 gusting 13 26.7
2015-Jul-29 13:38 257 4 gusting 14 26.7
2015-Jul-29 13:28 089 4 gusting 13 27.2
2015-Jul-29 13:18 037 5 gusting 12 26.7
2015-Jul-29 13:08 284 0 gusting 14 26.7
2015-Jul-29 12:58 004 3 gusting 13 26.1
2015-Jul-29 12:48 295 0 gusting 12 25.6
2015-Jul-29 12:38 300 1 gusting 11 25.6
2015-Jul-29 12:08 264 25.6
2015-Jul-29 11:58 283 2 25.6
2015-Jul-29 11:38 293 3 gusting 13 25.0
2015-Jul-29 11:28 019 6 25.0
2015-Jul-29 11:18 333 0 gusting 13 24.4
2015-Jul-29 11:08 265 24.4
2015-Jul-29 10:48 041 24.4
2015-Jul-29 10:38 275 24.4
2015-Jul-29 10:28 354 4 gusting 13 24.4
2015-Jul-29 10:08 340 3 gusting 11 23.3
2015-Jul-29 09:38 063 22.8
2015-Jul-29 09:28 349 1 22.8
2015-Jul-29 09:18 287 5 gusting 13 22.8
2015-Jul-29 08:58 232 22.2
2015-Jul-29 08:38 335 22.2
2015-Jul-29 08:08 086 0 21.7
2015-Jul-29 07:58 027 0 gusting 10 21.7
2015-Jul-29 07:48 279 21.7
2015-Jul-29 07:38 317 21.1
2015-Jul-29 07:18 355 0 gusting 11 21.1
2015-Jul-29 07:08 026 2 gusting 11 20.6
2015-Jul-29 06:58 354 1 20.6
2015-Jul-29 06:48 295 20.6
2015-Jul-29 06:28 342 1 gusting 11 20.6
2015-Jul-29 05:58 356 20.6
2015-Jul-29 05:48 328 2 gusting 10 20.6
2015-Jul-29 05:38 290 7 gusting 10 20.6
2015-Jul-29 05:18 334 21.1
2015-Jul-29 05:08 295 21.1
2015-Jul-29 04:58 009 3 21.1
2015-Jul-29 04:48 327 0 gusting 14 21.1
2015-Jul-29 04:38 063 4 21.1
2015-Jul-29 04:28 314 2 21.1
2015-Jul-29 03:48 302 7 gusting 11 20.6
2015-Jul-29 03:18 301 4 20.6
2015-Jul-29 02:58 340 6 20.0
2015-Jul-29 02:28 143 19.4
2015-Jul-29 02:18 290 19.4
2015-Jul-29 02:08 337 19.4
2015-Jul-29 01:58 021 3 19.4
2015-Jul-29 01:48 001 8 19.4
2015-Jul-29 01:38 342 4 19.4
2015-Jul-29 01:28 022 0 19.4
2015-Jul-29 01:08 013 0 gusting 12 18.9
2015-Jul-29 00:58 001 1 gusting 12 18.9
2015-Jul-29 00:48 319 1 18.9
2015-Jul-29 00:38 013 6 18.9
2015-Jul-29 00:08 318 18.9
2015-Jul-28 23:58 320 2 18.9
2015-Jul-28 23:48 328 18.9
2015-Jul-28 23:38 304 1 gusting 12 18.9
2015-Jul-28 23:28 297 0 gusting 10 19.4
2015-Jul-28 23:08 316 0 gusting 12 19.4
2015-Jul-28 22:58 008 12 gusting 13 19.4
2015-Jul-28 22:38 031 19.4
2015-Jul-28 22:28 335 6 gusting 13 19.4
2015-Jul-28 22:08 006 4 gusting 14 19.4
2015-Jul-28 21:58 033 4 gusting 14 19.4
2015-Jul-28 21:48 064 1 gusting 15 19.4
2015-Jul-28 21:28 316 2 gusting 12 20.0
2015-Jul-28 21:18 324 6 gusting 14 20.0
2015-Jul-28 21:08 219 8 gusting 13 20.0
2015-Jul-28 20:48 027 4 gusting 14 20.0
2015-Jul-28 20:18 008 12 gusting 13 20.6
2015-Jul-28 20:08 003 1 gusting 16 21.1
2015-Jul-28 19:48 356 6 gusting 17 21.7
2015-Jul-28 19:28 264 4 gusting 21 22.2
2015-Jul-28 19:18 302 6 gusting 16 22.2
2015-Jul-28 18:48 021 12 gusting 17 22.8
2015-Jul-28 18:28 259 5 gusting 17 23.3
2015-Jul-28 18:18 321 1 gusting 20 22.8
2015-Jul-28 18:08 300 6 gusting 21 23.3
2015-Jul-28 17:48 307 4 gusting 19 23.3
2015-Jul-28 17:38 308 4 gusting 17 23.3
2015-Jul-28 17:28 304 6 gusting 22 23.9
2015-Jul-28 17:18 290 3 gusting 21 23.9
2015-Jul-28 16:58 350 13 gusting 14 24.4
2015-Jul-28 16:38 300 0 gusting 17 25.0
2015-Jul-28 16:18 293 4 gusting 17 25.0
2015-Jul-28 16:08 311 6 gusting 17 25.6
2015-Jul-28 15:48 270 6 gusting 19 25.0
2015-Jul-28 15:38 278 5 gusting 18 25.0
2015-Jul-28 15:28 280 10 gusting 19 25.0
2015-Jul-28 15:18 349 8 gusting 17 24.4
2015-Jul-28 15:08 176 4 gusting 17 25.0
2015-Jul-28 14:48 301 6 gusting 20 25.6
2015-Jul-28 14:18 300 11 gusting 19 25.6
2015-Jul-28 13:58 290 8 gusting 17 25.6
2015-Jul-28 13:38 325 1 gusting 18 25.6
2015-Jul-28 13:18 022 6 gusting 17 25.6
2015-Jul-28 13:08 291 3 gusting 18 25.6
2015-Jul-28 12:48 338 1 gusting 16 25.6
2015-Jul-28 12:28 297 25.6
2015-Jul-28 12:18 236 8 gusting 16 25.6